Location: Casteau
(50.5142°N, 4.0161°E)
Time: 16:32:45
(UTC+00:00)

S-56A Canister/Altair - Pass Details

Date: 10 August 2021
Orbit: 632 x 2500 km, 38.9° (Epoch: 20 September)

Event Time Altitude Azimuth Distance (km) Brightness Sun altitude
Rises 16:20:22 0° 272° (W) 5,491 13.2 25.9°
Reaches altitude 10° 16:23:58 10° 266° (W) 4,692 13.5 25.3°
Maximum altitude 16:36:14 41° 203° (SSW) 3,246 11.3 23.4°
Drops below altitude 10° 16:49:33 10° 141° (SE) 5,070 11.4 21.2°
Sets 16:53:38 0° 135° (SE) 5,959 11.7 20.6°
